Location: Newark
(54.6833°N, 25.2833°E)
Time: 15:57:25
(UTC+00:00)

Tiros 1 despin weight - Pass Details

Date: 21 November 2019
Orbit: 594 x 642 km, 48.2° (Epoch: 12 December)

Event Time Altitude Azimuth Distance (km) Brightness Sun altitude
Rises 13:09:41 0° 251° (WSW) 2,829 ? 5.6°
Reaches altitude 10° 13:12:05 10° 243° (WSW) 1,930 ? 5.4°
Maximum altitude 13:16:08 36° 177° (S) 961 ? 5.0°
Drops below altitude 10° 13:20:13 10° 111° (ESE) 1,949 ? 4.6°
Sets 13:22:39 0° 103° (ESE) 2,860 ? 4.3°
